Hourly Data Report for October 07, 2015

All times are specified in Local Standard Time (LST). Add 1 hour to adjust for Daylight Saving Time where and when it is observed.

FREDERICTON
NEW BRUNSWICK

45°52'08.000" N
66°32'14.000" W
20.70 m
8101505
71700
YFC

Download Data

Hourly Data (October 2015)
Hourly Data Report for October 7, 2015
Temp Definition
°C
Dew Point Temp Definition
°C
Rel Hum Definition
%
Wind Dir Definition
10's deg

Wind Spd Definition
km/h
Visibility Definition
km
Stn Press Definition
kPa
Hmdx Definition


Wind Chill Definition


Weather Definition


TIME
00:00 Legend Double Dagger 6.4 5.2 92 24 5 16.1 100.82     LegendNANA
01:00 Legend Double Dagger 6.3 5.0 91 26 8 16.1 100.80     LegendNANA
02:00 Legend Double Dagger 4.7 3.8 94 21 8 16.1 100.83     LegendNANA
03:00 Legend Double Dagger 5.3 4.5 95 27 8 16.1 100.80     LegendNANA
04:00 Legend Double Dagger 4.6 3.7 94 24 5 16.1 100.78     LegendNANA
05:00 Legend Double Dagger 2.9 2.5 97 23 5 16.1 100.81     LegendNANA
06:00 Legend Double Dagger 4.3 3.7 96 21 8 16.1 100.82     LegendNANA
07:00 Legend Double Dagger 3.6 3.3 98 20 8 16.1 100.83     LegendNANA
08:00 Legend Double Dagger 6.7 5.4 91 20 8 16.1 100.83     LegendNANA
09:00 Legend Double Dagger 10.5 6.6 77 25 9 16.1 100.86     LegendNANA
10:00 Legend Double Dagger 12.5 6.3 66 27 11 16.1 100.84     LegendNANA
11:00 Legend Double Dagger 13.7 6.2 60 28 15 16.1 100.79     LegendNANA
12:00 Legend Double Dagger 14.9 6.7 58 26 15 16.1 100.77     LegendNANA
13:00 Legend Double Dagger 16.0 6.8 54 26 9 16.1 100.71     LegendNANA
14:00 Legend Double Dagger 16.5 6.3 51 25 17 16.1 100.65     LegendNANA
15:00 Legend Double Dagger 17.0 6.7 50 31 13 16.1 100.62     LegendNANA
16:00 Legend Double Dagger 17.4 7.0 50 29 9 16.1 100.62     LegendNANA
17:00 Legend Double Dagger 16.4 9.0 61 21 5 16.1 100.62     LegendNANA
18:00 Legend Double Dagger 13.3 8.8 74 19 4 16.1 100.63     LegendNANA
19:00 Legend Double Dagger 11.2 8.8 85 19 8 16.1 100.67     LegendNANA
20:00 Legend Double Dagger 10.5 8.1 85 23 13 16.1 100.69     LegendNANA
21:00 Legend Double Dagger 11.9 8.4 79 25 11 16.1 100.72     LegendNANA
22:00 Legend Double Dagger 12.5 8.4 76 27 9 16.1 100.77     LegendNANA
23:00 Legend Double Dagger 11.5 7.8 78 30 13 16.1 100.82     LegendNANA

Notes on Data Quality.

Legend

  • E = Estimated
  • M = Missing
  • NA = Not Available
  • ‡ = Partner data that is not subject to review by the National Climate Archives
Date modified: